Station 46006 (LLNR 510) - SOUTHEAST PAPA - 600NM West of Eureka, CA Image indicating link to RSS feed of recent meteorological observations for station 46006


Conditions at 46006 as of
(6:30 am PDT)
1330 GMT on 09/06/2026:
     

Click on the graph icon in the table below to see a time series plot of the last five days of that observation.

5-day plot - Wind Direction Wind Direction (WDIR):WNW ( 290 deg true )
5-day plot - Wind Speed Wind Speed (WSPD): 7.8 kts
5-day plot - Wind Gust Wind Gust (GST): 11.7 kts
5-day plot - Atmospheric Pressure Atmospheric Pressure (PRES):30.19 in
5-day plot - Air Temperature Air Temperature (ATMP): 64.4 °F
5-day plot - Wind Speed at 10 Meters Wind Speed at 10 meters (WSPD10M): 7.8 kts
5-day plot - Wind Speed at 20 Meters Wind Speed at 20 meters (WSPD20M): 9.7 kts
5-day plot -  Wind Speed, Wind Gust and Atmospheric Pressure Combined plot of Wind Speed, Gust, and Air Pressure
Supplemental Measurements
Lowest 1-minute Pressure
Time (PDT)Pressure
6:21 am30.19 in
Highest 1-minute Wind Speed
Time (PDT)5-day plot - 1-Minute Wind Speed WSPD 5-day plot - 1-Minute Wind Direction WDIR
6:26 am 9.7 ktsWNW ( 300 deg true )
Previous observations
TIME
(PDT)
5-day plot - Wind Direction
WDIR
 
5-day plot - Wind Speed
WSPD
kts
5-day plot - Wind Gust
GST
kts
5-day plot - Wave Height
WVHT
ft
5-day plot - Dominant Wave Period
DPD
sec
5-day plot - Average Wave Period
APD
sec
5-day plot - Mean Wave Direction
MWD
 
5-day plot - Atmospheric Pressure
PRES
in
5-day plot - Pressure Tendency
PTDY
in
5-day plot - Air Temperature
ATMP
°F
5-day plot - Water Temperature
WTMP
°F
5-day plot - Dew Point
DEWP
°F
5-day plot - Salinity
SAL
psu
5-day plot - Visibility
VIS
nmi
5-day plot - Tide (above MLLW)
TIDE
ft
2026-09-06 06:20 amWNW 7.8 11.7----30.19- 64.4-----
2026-09-06 06:10 amWNW 7.8 11.7----30.19- 64.2-----
2026-09-06 06:00 amWNW 5.8 9.7----30.19-0.01 64.0-----
2026-09-06 05:50 am NW 7.8 11.7----30.19- 64.2-----
2026-09-06 05:40 am NW 7.8 9.7----30.19- 64.2-----
2026-09-06 05:30 amWNW 7.8 11.7----30.19- 64.2-----
2026-09-06 05:20 amWNW 7.8 9.7----30.19- 64.4-----
2026-09-06 05:10 amWNW 5.8 11.7----30.19- 64.4-----
2026-09-06 05:00 amWNW 5.8 11.7----30.19-0.01 64.2-----
2026-09-06 04:50 am NW 7.8 11.7----30.19- 64.2-----
2026-09-06 04:40 amWNW 7.8 11.7----30.19- 64.4-----
2026-09-06 04:30 amWNW 9.7 11.7----30.19- 64.4-----
2026-09-06 04:20 amWNW 9.7 11.7----30.19- 64.4-----
2026-09-06 04:10 amWNW 7.8 11.7----30.19- 64.4-----
2026-09-06 04:00 am W 5.8 9.7----30.20+0.00 64.4-----
2026-09-06 03:50 amWNW 5.8 9.7----30.20- 64.4-----
2026-09-06 03:40 amWNW 7.8 11.7----30.20- 64.4-----
2026-09-06 03:30 amWNW 7.8 9.7----30.20- 64.6-----
2026-09-06 03:20 amWNW 5.8 7.8----30.20- 64.6-----
2026-09-06 03:10 am NW 5.8 7.8----30.20- 64.6-----
2026-09-06 03:00 am NW 5.8 9.7----30.20+0.00 64.4-----
2026-09-06 02:50 amNNW 7.8 11.7----30.20- 64.6-----
2026-09-06 02:40 amNNW 7.8 9.7----30.20- 64.6-----
2026-09-06 02:30 am NW 5.8 9.7----30.20- 64.6-----
2026-09-06 02:20 amWNW 3.9 7.8----30.20- 64.6-----
2026-09-06 02:10 am NW 3.9 7.8----30.20- 64.6-----
2026-09-06 02:00 amNNW 3.9 5.8----30.21+0.01 64.4-----
2026-09-06 01:50 am NW 3.9 7.8----30.20- 64.4-----
2026-09-06 01:40 amWNW 3.9 7.8----30.20- 64.4-----
2026-09-06 01:30 am NW 3.9 5.8----30.20- 64.4-----
2026-09-06 01:20 am NW 5.8 7.8----30.20- 64.4-----
2026-09-06 01:10 am NW 5.8 9.7----30.20- 64.4-----
2026-09-06 01:00 am NW 7.8 11.7----30.20+0.01 64.6-----
2026-09-06 12:50 amWNW 5.8 7.8----30.20- 64.6-----
2026-09-06 12:40 am W 5.8 9.7----30.20- 64.4-----
2026-09-06 12:30 amWNW 7.8 9.7----30.20- 64.6-----
2026-09-06 12:20 amNNW 5.8 9.7----30.19- 64.6-----
2026-09-06 12:10 amNNW 5.8 7.8----30.19- 64.6-----
2026-09-06 12:00 am N 3.9 7.8----30.20+0.03 64.4-----
2026-09-05 11:50 pmNNW 5.8 9.7----30.20- 64.4-----
2026-09-05 11:40 pmNNW 5.8 7.8----30.20- 64.4-----
2026-09-05 11:30 pmNNW 5.8 7.8----30.20-------
2026-09-05 11:20 pm NW 5.8 7.8----30.20- 64.6-----
2026-09-05 11:10 pm NW 7.8 9.7----30.20- 64.6-----
2026-09-05 11:00 pm NW 5.8 7.8----30.20+0.03 64.4-----
2026-09-05 10:50 pm NW 5.8 9.7----30.19- 64.4-----
2026-09-05 10:40 pmNNW 7.8 9.7----30.19- 64.4-----
2026-09-05 10:30 pmNNW 5.8 9.7----30.19-------
2026-09-05 10:20 pmNNW 5.8 9.7----30.19- 64.4-----
2026-09-05 10:10 pm NW 5.8 7.8----30.19- 64.4-----
2026-09-05 10:00 pm NW 7.8 9.7----30.19+0.01 64.4-----
2026-09-05 09:50 pmNNW 7.8 9.7----30.19- 64.4-----
2026-09-05 09:40 pmNNW 5.8 9.7----30.18- 64.4-----
2026-09-05 09:30 pm NW 5.8 9.7----30.17- 64.4-----
2026-09-05 09:20 pm NW 5.8 7.8----30.17- 64.4-----
2026-09-05 09:10 pm NW 5.8 7.8----30.17- 64.4-----
2026-09-05 09:00 pm NW 5.8 7.8----30.17+0.00 64.4-----
2026-09-05 08:50 pm NW 5.8 9.7----30.17- 64.4-----
2026-09-05 08:40 pm NW 5.8 7.8----30.16- 64.4-----
2026-09-05 08:30 pm NW 5.8 9.7----30.17- 64.4-----
2026-09-05 08:20 pm NW 5.8 7.8----30.17- 64.4-----
2026-09-05 08:10 pm NW 5.8 7.8----30.17- 64.6-----
2026-09-05 08:00 pmNNW 5.8 7.8----30.17-0.01 64.6-----
2026-09-05 07:50 pmNNW 5.8 7.8----30.17- 64.6-----
2026-09-05 07:40 pmNNW 7.8 9.7----30.17- 64.8-----
2026-09-05 07:30 pm NW 7.8 9.7----30.17- 64.9-----
2026-09-05 07:20 pmNNW 7.8 9.7----30.17- 64.9-----
2026-09-05 07:10 pmNNW 7.8 9.7----30.17- 64.9-----
2026-09-05 07:00 pmNNW 7.8 9.7----30.17-0.01 64.8-----
2026-09-05 06:50 pmNNW 7.8 9.7----30.18- 64.8-----
2026-09-05 06:40 pmNNW 7.8 11.7----30.18- 64.6-----
2026-09-05 06:30 pmNNW 7.8 11.7----30.18- 64.8-----
2026-09-05 06:20 pmNNW 7.8 11.7----30.18- 64.6-----
2026-09-05 06:10 pmNNW 7.8 11.7----30.18- 64.6-----
2026-09-05 06:00 pmNNW 7.8 9.7----30.18-0.02 64.6-----
2026-09-05 05:50 pmNNW 7.8 9.7----30.17- 64.6-----
2026-09-05 05:40 pm NW 7.8 9.7----30.18- 64.6-----
2026-09-05 05:30 pm NW 7.8 9.7----30.18- 64.6-----
2026-09-05 05:20 pmNNW 7.8 11.7----30.18- 64.6-----
2026-09-05 05:10 pmNNW 7.8 9.7----30.18- 64.4-----
2026-09-05 05:00 pm NW 7.8 9.7----30.18-0.02 64.4-----
2026-09-05 04:50 pmNNW 5.8 9.7----30.18- 64.4-----
2026-09-05 04:40 pmNNW 7.8 9.7----30.18- 64.4-----
2026-09-05 04:30 pmNNW 7.8 9.7----30.18- 64.4-----
2026-09-05 04:20 pm NW 7.8 9.7----30.18- 64.4-----
2026-09-05 04:10 pmNNW 7.8 9.7----30.19- 64.4-----
2026-09-05 04:00 pm NW 7.8 9.7----30.19-0.02 64.4-----
2026-09-05 03:50 pm NW 7.8 9.7----30.19- 64.2-----
2026-09-05 03:40 pm NW 7.8 9.7----30.19- 64.0-----
2026-09-05 03:30 pmNNW 5.8 9.7----30.20- 64.0-----
2026-09-05 03:20 pmNNW 7.8 9.7----30.20- 64.2-----
2026-09-05 03:10 pm NW 7.8 9.7----30.20- 64.0-----
2026-09-05 03:00 pmNNW 5.8 9.7----30.20-0.01 64.0-----
2026-09-05 02:50 pmNNW 7.8 9.7----30.20- 64.0-----
2026-09-05 02:40 pmNNW 7.8 9.7----30.20- 64.0-----
2026-09-05 02:30 pmNNW 7.8 9.7----30.21- 64.0-----
2026-09-05 02:20 pmNNW 7.8 9.7----30.21- 64.0-----
2026-09-05 02:10 pmNNW 5.8 7.8----30.21- 64.0-----
2026-09-05 02:00 pmNNW 5.8 11.7----30.21+0.00 64.0-----
2026-09-05 01:50 pmNNW 7.8 9.7----30.21- 64.0-----
2026-09-05 01:40 pmNNW 7.8 9.7----30.21- 63.9-----
2026-09-05 01:30 pmNNW 5.8 7.8----30.21- 64.0-----
2026-09-05 01:20 pmNNW 7.8 9.7----30.21- 64.0-----
2026-09-05 01:10 pmNNW 7.8 9.7----30.22- 64.0-----
2026-09-05 01:00 pmNNW 7.8 9.7----30.22+0.01 64.0-----
2026-09-05 12:50 pmNNW 5.8 9.7----30.21-------
2026-09-05 12:40 pm N 5.8 9.7----30.21- 64.0-----
2026-09-05 12:30 pmNNW 7.8 9.7----30.21- 64.0-----
2026-09-05 12:20 pm N 5.8 7.8----30.21- 63.9-----
2026-09-05 12:10 pm N 7.8 9.7----30.21- 63.7-----
2026-09-05 12:00 pmNNW 7.8 9.7----30.21+0.02 63.7-----
2026-09-05 11:50 amNNW 7.8 9.7----30.21- 63.3-----
2026-09-05 11:40 am N 7.8 9.7----30.21-------
2026-09-05 11:30 amNNW 5.8 7.8----30.21- 63.7-----
2026-09-05 11:20 amNNW 7.8 9.7----30.21- 63.7-----
2026-09-05 11:10 amNNW 7.8 11.7----30.20- 63.5-----
2026-09-05 11:00 am N 7.8 9.7----30.20+0.02 63.7-----
2026-09-05 10:50 am N 7.8 9.7----30.20- 63.7-----
2026-09-05 10:40 am N 5.8 9.7----30.20- 63.3-----
2026-09-05 10:30 am N 7.8 9.7----30.20- 63.3-----
2026-09-05 10:20 am N 7.8 9.7----30.20- 63.3-----
2026-09-05 10:10 am N 7.8 9.7----30.20- 63.3-----
2026-09-05 10:00 am N 7.8 11.7----30.20+0.03 63.5-----
2026-09-05 09:50 amNNW 7.8 11.7----30.20- 63.1-----
2026-09-05 09:40 amNNW 7.8 11.7----30.20- 63.1-----
2026-09-05 09:30 amNNW 7.8 11.7----30.19- 63.1-----
2026-09-05 09:20 am N 7.8 11.7----30.19- 63.1-----
2026-09-05 09:10 am N 7.8 11.7----30.19- 63.3-----
2026-09-05 09:00 am N 5.8 9.7----30.19+0.03 63.3-----
2026-09-05 08:50 amNNW 7.8 9.7----30.19- 63.1-----
2026-09-05 08:40 amNNW 7.8 9.7----30.19- 63.1-----
2026-09-05 08:30 amNNW 5.8 9.7----30.19- 63.0-----
2026-09-05 08:20 am N 9.7 13.6----30.18- 63.0-----
2026-09-05 08:10 am N 7.8 11.7----30.18- 63.1-----
2026-09-05 08:00 am N 7.8 11.7----30.18+0.01 63.0-----
2026-09-05 07:50 am N 7.8 9.7----30.18- 63.1-----
2026-09-05 07:40 am N 5.8 7.8----30.17- 62.8-----
2026-09-05 07:30 am N 7.8 11.7----30.17- 63.1-----
2026-09-05 07:20 am N 9.7 11.7----30.17- 63.1-----
2026-09-05 07:10 am N 7.8 9.7----30.17- 63.1-----
2026-09-05 07:00 amNNE 7.8 13.6----30.16-0.01 63.3-----
2026-09-05 06:50 am N 7.8 11.7----30.16-------
2026-09-05 06:40 am N 7.8 13.6----30.16- 63.3-----
2026-09-05 06:30 am N 9.7 11.7----30.16- 63.3-----
2026-09-05 06:20 am N 9.7 13.6----30.16- 63.5-----
2026-09-05 06:10 am N 7.8 11.7----30.16- 63.3-----
2026-09-05 06:00 amNNW 9.7 11.7----30.16-0.02 63.3-----
2026-09-05 05:50 am N 9.7 11.7----30.16-------